Dewpoint
16 18 18 18 19 17 13 11 9 10 10 10 11 10 11 11 13 13 11 11 12 14 15 11 10 12 13 12 12 12 13 12 13 13 14 13 14 13 12 13 13 12 12 13 9 13 13 3 12
18 17 17 16 19 11 12 9 10 10 10 11 11 11 12 11 10 10 11 12 13 13 14 15 10 10 12 12 10 10 13 14 14 12 13 14 14 13 12 12 9 9 12 12 13 11 12 10 5
16 16 18 16 10 13 12 9 9 10 11 11 10 10 10 10 10 10 11 12 13 13 15 12 11 11 10 11 12 10 14 14 14 13 14 14 13 13 11 8 12 13 13 9 12 12 12 11 11
18 18 18 14 11 10 10 9 9 9 10 8 10 10 10 10 11 11 11 12 13 15 15 11 12 11 11 13 11 13 14 14 14 13 14 12 13 7 12 13 12 13 13 13 12 13 12 11 11
18 16 15 11 10 9 8 8 8 9 9 7 8 11 12 12 11 11 11 12 13 15 15 12 12 12 12 13 13 13 13 13 13 14 14 12 11 9 8 13 13 10 11 13 14 14 13 12 12
18 14 15 11 10 9 8 8 7 8 8 8 9 11 12 12 11 11 11 13 14 15 15 15 12 12 12 14 13 13 13 13 14 13 13 13 12 12 10 12 9 12 13 13 13 13 13 13 12
16 11 8 8 9 10 10 8 7 7 7 7 8 11 12 12 12 11 12 13 14 15 14 15 15 11 13 14 11 14 14 13 12 10 10 12 12 11 10 12 12 13 13 13 14 13 12 11 12
14 7 8 8 9 10 8 7 7 7 7 7 8 10 12 12 12 12 12 13 14 11 14 16 15 16 16 15 13 11 11 10 7 12 13 12 11 12 12 13 13 11 13 12 13 13 13 12 12
11 12 8 9 9 9 8 8 8 8 8 9 8 9 11 12 12 11 12 13 14 14 14 15 16 16 16 14 13 13 13 11 8 11 13 14 15 16 16 15 11 10 9 11 12 13 12 12 12
10 6 6 6 7 8 8 8 8 8 8 9 10 10 11 11 11 11 12 13 13 14 14 14 15 15 15 15 15 17 16 16 16 16 16 16 15 16 15 13 10 11 8 9 10 12 12 15 16
4 7 5 4 6 7 7 8 8 8 9 9 11 11 11 11 11 11 11 12 12 13 14 14 14 14 14 14 15 16 16 14 16 17 17 15 16 15 16 16 16 16 12 16 11 10 8 15 16
5 6 6 6 5 6 7 7 7 8 8 9 10 11 11 10 10 10 10 11 12 13 14 14 15 15 14 14 14 14 14 14 15 16 16 16 16 15 14 15 16 15 14 13 14 14 15 11 12
3 5 6 7 7 5 6 6 6 7 8 9 10 10 11 10 11 10 9 10 12 13 13 13 15 16 15 15 14 14 14 14 14 15 15 15 15 15 15 15 16 16 16 15 14 16 15 11 12
5 4 6 8 7 8 7 7 6 7 8 9 9 10 10 11 11 11 10 10 10 11 13 13 15 16 16 15 15 14 13 13 15 14 15 14 16 15 15 15 15 15 16 16 16 15 13 13 14
5 6 5 6 8 8 8 9 7 6 8 9 10 10 11 11 12 12 12 11 10 11 12 13 14 15 16 16 16 14 13 12 14 15 17 13 15 16 17 15 15 16 16 16 16 17 14 14 14
6 7 5 5 7 7 10 10 8 7 8 9 9 10 11 11 12 13 13 13 12 11 12 13 13 14 15 15 15 14 14 14 14 15 16 17 17 16 13 16 16 16 16 16 16 15 15 15 17
4 2 2 6 5 4 8 9 8 8 6 8 9 10 11 12 12 13 13 14 13 13 14 14 14 14 15 16 16 16 16 16 15 15 16 16 17 18 15 16 16 16 15 16 16 16 17 15 14
0 -1 -1 4 5 6 4 6 8 8 6 6 8 9 10 11 12 12 13 13 13 15 15 15 15 15 16 17 17 16 16 16 15 16 16 16 17 17 17 17 17 16 16 17 17 16 17 16 16
-4 -3 -1 -1 1 4 3 7 8 7 7 7 7 7 8 9 10 11 12 12 13 14 15 16 16 17 17 17 16 15 15 15 16 16 16 17 18 17 18 17 17 17 16 16 17 17 17 17 17
-4 -3 -2 -2 -0 1 2 3 6 7 7 6 6 7 7 7 8 10 11 11 12 13 15 16 17 17 14 17 16 15 15 14 15 15 16 18 17 18 17 17 16 17 17 17 18 17 17 16 16
-5 -4 -3 2 -0 -0 0 3 4 5 6 7 6 6 6 6 7 8 9 10 11 12 14 16 17 17 12 16 17 17 17 16 16 15 16 16 18 18 18 16 16 17 17 16 17 17 17 16 15
-3 -5 -4 -3 -1 9 -1 7 3 3 6 6 6 6 6 7 6 7 8 9 10 11 13 15 17 17 15 13 16 17 16 15 15 15 15 15 17 17 17 18 18 15 17 16 17 16 17 17 17
-3 -4 -5 -3 -1 -4 -2 -2 1 1 3 5 5 5 6 6 7 8 8 8 8 10 11 14 16 16 16 13 15 16 16 15 16 15 16 16 16 17 17 18 18 18 18 17 19 18 17 17 18
-6 -4 -4 -4 -4 -2 -3 -4 -2 -5 -1 1 2 3 4 6 7 7 7 8 9 9 11 13 16 13 14 15 12 15 16 17 16 16 16 16 16 16 16 16 18 18 18 18 17 16 16 15 16
-5 -4 -3 -3 -3 -3 -6 -6 -3 -4 -6 -5 -1 2 4 6 7 8 8 8 9 10 11 12 15 16 11 11 12 11 12 16 17 16 16 16 15 15 15 16 17 18 18 18 18 18 17 16 17
-4 -5 -3 1 -1 -4 -5 -5 -4 -6 -6 -6 -3 -1 1 3 5 6 8 8 9 9 11 12 14 16 13 14 12 12 12 16 17 17 16 16 16 16 16 17 18 18 18 18 18 18 18 18 18
-2 -2 -6 -6 -7 -4 -5 -6 -3 -5 -3 -3 -3 0 0 -3 -1 2 5 9 10 10 10 12 13 16 15 17 16 13 12 13 17 17 17 17 17 17 15 16 16 17 18 18 18 19 18 18 18
-3 -4 -5 -6 -1 0 -5 -4 -3 -2 -2 -3 -2 -1 -5 -4 -0 5 6 8 10 11 10 12 13 15 16 16 17 16 13 12 13 15 16 17 16 15 11 13 15 18 17 18 17 18 18 18 15
-4 -3 -4 -7 -7 -3 -1 -4 -5 -0 -3 -2 -2 -0 -3 -1 -0 1 4 7 10 12 12 12 14 14 16 16 15 17 17 18 13 17 18 15 15 17 13 11 15 20 19 19 17 15 15 17 12
-5 -5 -5 -3 -2 -5 -5 -2 -5 -3 -4 -3 -3 -0 0 1 2 4 7 8 8 11 13 14 14 15 15 16 16 16 17 16 16 18 17 16 18 16 11 16 19 19 19 19 19 17 18 18 18
Wind_Speed
2 4 4 3 5 4 9 10 13 9 13 14 9 14 15 16 5 13 21 19 19 16 16 17 15 14 14 13 11 9 8 7 8 8 7 8 9 9 10 9 10 11 12 12 13 12 12 14 14
4 5 5 5 2 11 9 12 13 14 15 12 10 10 15 16 20 24 22 20 18 15 16 14 15 14 15 14 10 9 7 8 9 8 8 8 9 11 11 11 13 14 13 12 12 13 13 14 13
2 2 5 1 10 10 12 12 11 11 10 6 8 13 7 20 18 18 22 20 17 17 18 12 12 10 10 9 8 10 8 9 9 9 11 10 10 11 10 13 12 12 12 13 13 14 14 13 12
3 4 6 4 14 14 13 10 11 10 10 15 18 13 23 16 15 21 21 19 17 17 12 9 8 8 9 8 8 9 9 9 9 10 11 11 11 11 10 11 12 10 11 12 12 11 11 11 10
4 8 2 11 14 14 12 9 7 9 11 10 18 17 16 11 19 21 19 17 17 15 9 10 9 9 10 10 9 9 8 10 10 10 10 10 11 13 11 10 10 11 11 10 11 11 10 9 9
8 4 2 10 13 11 10 10 10 12 11 13 20 18 16 17 19 18 16 16 13 14 14 11 13 12 13 10 9 9 9 10 10 11 8 10 12 12 10 9 9 9 10 11 10 8 8 9 9
12 4 12 11 12 9 7 5 10 11 11 14 15 16 17 18 17 16 15 15 17 15 13 10 11 11 11 9 9 10 9 9 10 11 12 11 11 10 9 8 8 8 11 10 10 10 11 10 10
16 1 12 8 11 12 6 10 9 12 13 10 12 11 16 19 17 16 14 13 11 13 13 9 9 9 8 8 8 9 9 8 10 11 12 11 9 9 8 7 7 7 7 7 8 8 10 10 8
11 2 9 12 8 11 10 11 8 11 11 8 8 18 20 19 18 16 15 13 9 11 12 10 11 11 10 3 8 8 9 10 9 11 11 9 10 9 5 7 5 6 7 6 6 5 6 7 7
8 11 8 8 14 10 10 11 12 10 14 15 17 20 20 18 17 16 14 14 13 13 13 12 12 9 9 9 5 9 6 2 9 7 6 6 7 5 7 3 3 3 4 4 5 5 3 6 7
19 9 10 12 14 11 12 9 10 8 13 14 18 20 19 17 16 15 14 13 14 14 14 13 12 12 9 8 9 6 5 5 5 7 9 3 7 5 4 2 3 4 4 3 2 3 2 2 4
15 8 13 12 11 9 11 10 10 5 13 16 17 19 18 16 15 14 14 14 14 15 14 14 13 13 9 8 9 8 7 7 4 8 6 4 7 4 7 4 2 6 3 5 4 5 8 4 5
15 11 13 12 7 13 10 9 9 9 13 17 19 17 16 15 14 13 13 13 13 14 13 14 13 14 13 12 9 8 7 8 6 4 6 4 4 3 4 3 4 4 3 7 5 5 8 4 6
7 9 14 11 9 8 11 10 12 10 14 18 18 17 15 14 14 13 13 13 13 13 13 13 13 13 12 10 11 9 8 8 7 6 8 8 6 6 4 4 5 4 4 4 4 6 6 4 6
11 16 15 13 9 8 12 6 15 13 16 17 16 16 15 14 14 13 12 12 12 12 12 12 12 11 11 10 9 8 8 7 7 7 8 7 7 7 8 6 6 7 6 5 6 7 7 10 10
6 18 9 10 6 7 15 11 13 15 17 17 17 15 15 15 14 12 12 12 12 12 13 12 11 10 10 8 8 7 7 8 7 7 7 6 4 6 8 7 8 6 4 9 5 9 11 10 11
19 6 10 13 7 7 10 12 14 16 18 18 17 18 17 16 15 14 13 12 12 11 12 12 11 11 10 10 7 7 7 6 6 7 7 9 6 7 7 9 5 8 9 7 9 10 11 11 10
7 5 7 8 12 6 7 15 14 18 17 18 19 20 18 19 18 17 16 15 14 12 12 12 11 11 11 9 9 7 7 6 5 6 7 8 7 6 7 4 7 11 9 10 8 13 9 12 12
8 4 2 6 10 9 3 16 14 17 16 17 18 19 20 20 19 19 18 17 16 15 14 14 14 14 12 10 8 7 7 7 7 7 9 9 7 8 9 6 8 9 6 11 8 7 10 8 10
6 8 8 6 7 8 7 5 17 17 16 17 18 18 19 20 21 21 20 19 18 17 17 17 16 16 13 11 10 9 8 8 8 8 9 7 13 11 12 9 7 10 7 9 8 8 7 8 9
10 11 8 7 9 12 4 7 13 18 18 17 16 18 19 21 22 22 22 21 20 19 19 19 20 19 16 16 13 11 11 10 8 10 10 10 10 10 9 10 9 9 8 7 9 8 8 7 9
13 2 5 3 8 14 13 11 14 15 16 17 19 19 20 21 22 22 22 22 22 21 19 19 20 21 18 17 16 15 11 10 8 8 8 8 9 10 11 11 12 11 8 10 9 12 9 10 11
6 6 8 6 11 8 10 7 12 16 15 17 19 21 21 21 22 23 23 22 21 21 20 20 21 21 22 20 18 17 13 11 9 8 9 9 11 11 11 12 12 11 9 11 12 14 14 14 15
7 9 8 10 13 11 9 8 12 11 11 16 21 19 19 21 21 21 21 21 21 22 21 20 21 23 22 22 20 21 17 13 12 10 10 8 7 9 11 11 14 14 13 14 14 14 14 16 16
12 17 11 10 10 9 11 5 4 9 3 9 17 18 18 16 18 21 21 22 22 23 22 22 22 23 24 25 24 22 21 17 15 15 11 10 8 8 9 15 14 13 16 14 17 17 16 17 16
18 18 13 7 11 6 10 7 3 13 12 7 5 10 11 12 16 21 23 22 22 23 24 24 24 24 25 24 24 22 20 18 16 15 13 12 10 10 10 13 15 17 19 19 18 17 17 14 15
20 17 18 17 15 9 5 10 7 9 11 12 13 14 11 8 5 10 18 22 23 23 25 26 26 24 23 22 22 23 22 21 16 16 14 11 12 13 16 17 17 16 16 17 17 16 16 15 14
23 18 12 9 14 14 12 7 5 17 15 14 15 15 11 9 7 9 10 17 21 22 22 23 24 24 22 21 20 20 21 21 19 20 19 17 16 15 17 17 16 16 13 13 14 13 13 15 11
13 17 14 16 14 13 10 10 17 17 16 16 16 16 14 9 8 7 10 12 16 19 21 23 22 21 20 20 19 16 16 16 16 17 18 20 18 18 20 20 17 16 14 14 14 12 13 17 13
25 22 21 14 15 13 13 2 7 15 16 19 18 17 14 9 7 8 9 11 14 17 18 19 20 21 18 15 16 17 15 15 14 18 16 15 16 18 20 16 16 17 16 15 15 13 12 13 13
Wind_Direction
22 291 291 278 253 179 65 99 106 117 78 74 63 60 66 40 68 99 132 132 132 134 138 133 118 116 120 114 111 114 119 118 119 114 105 105 95 97 97 98 104 107 110 107 109 107 102 107 116
245 280 277 270 214 86 72 77 86 75 90 93 96 101 74 69 100 118 123 130 131 132 130 135 122 115 115 107 96 110 121 122 113 109 105 105 103 106 98 101 106 102 107 112 113 109 105 110 113
24 288 276 95 43 59 67 63 79 94 98 57 83 69 70 109 110 120 129 127 129 134 140 146 124 122 119 117 101 108 115 105 114 106 103 110 106 103 108 113 112 113 113 113 112 113 105 98 104
310 256 259 30 76 76 80 75 102 121 129 86 107 80 97 107 110 128 130 129 126 134 161 167 134 134 128 123 107 109 109 114 112 106 105 106 104 110 115 113 116 111 118 113 115 113 103 95 93
310 256 202 95 82 80 81 71 78 86 97 118 105 113 105 107 124 128 129 131 127 123 136 145 129 132 133 128 116 111 108 108 112 106 106 111 115 113 119 109 111 116 123 121 113 112 107 101 88
239 258 228 90 91 84 84 73 77 87 87 102 107 112 105 123 128 131 131 127 137 131 132 129 118 123 128 125 122 112 108 116 118 120 125 114 114 117 117 114 117 123 119 111 109 99 106 107 97
243 227 78 96 100 84 75 35 74 101 120 105 123 118 127 133 134 135 133 131 134 127 132 134 134 121 125 122 121 116 113 115 119 121 118 122 115 115 116 121 124 124 127 111 108 105 111 101 98
284 115 100 93 81 88 94 84 83 89 89 124 125 131 141 138 139 138 136 134 135 138 133 147 114 132 120 122 122 117 118 112 122 122 117 112 105 108 115 116 124 132 133 116 110 110 116 107 100
245 289 69 83 115 107 129 103 79 115 127 104 82 134 138 142 142 141 140 147 150 145 152 154 149 133 143 95 124 116 111 94 108 115 108 110 109 111 86 132 134 128 142 142 133 129 132 119 101
245 52 55 10 116 117 117 104 124 118 113 100 99 116 134 142 146 147 151 155 158 159 159 160 151 154 145 145 105 121 106 114 108 131 95 134 123 149 165 146 131 125 132 154 157 160 147 213 116
53 68 78 66 85 124 110 120 153 112 128 132 130 137 144 148 153 151 153 150 153 153 157 164 161 159 157 166 136 137 134 136 154 144 151 151 154 146 117 294 151 64 103 115 179 191 230 95 130
90 75 89 103 107 129 117 118 102 44 120 133 139 145 146 154 158 155 151 148 151 155 162 162 172 164 162 165 141 159 156 152 147 167 136 148 137 169 161 217 36 154 170 183 169 193 246 249 234
94 99 99 106 128 96 126 124 91 104 130 132 140 149 150 152 153 152 153 154 154 156 159 161 171 172 172 165 163 169 169 154 173 188 174 192 164 174 186 165 231 184 202 171 192 191 234 258 279
90 112 123 125 112 126 119 118 110 133 145 138 147 149 154 146 150 146 152 158 160 160 163 171 170 170 168 162 168 170 168 172 173 175 215 184 168 187 193 193 213 204 248 7 230 231 251 273 303
197 144 139 131 158 145 136 150 109 141 150 151 157 158 148 147 141 146 150 152 159 166 169 177 174 177 176 176 174 171 179 183 186 194 222 205 181 202 184 198 225 243 195 232 249 245 264 285 284
278 138 118 124 180 144 204 101 136 153 159 165 166 166 162 160 158 155 153 152 155 157 168 174 171 184 184 188 192 184 187 196 195 199 214 211 209 240 184 200 228 254 274 293 251 275 276 281 281
150 102 111 139 187 146 227 127 151 173 166 174 178 179 180 181 180 177 173 168 162 164 169 174 175 176 190 191 190 180 196 192 204 217 211 245 222 236 243 218 237 240 243 255 264 267 287 295 290
18 358 123 133 149 240 218 118 159 182 173 177 188 187 190 190 194 190 188 185 180 179 177 181 178 181 183 194 181 190 199 213 216 219 215 225 232 237 259 249 230 265 268 278 264 270 282 297 306
293 285 5 94 130 221 193 136 161 179 184 183 188 196 194 202 197 195 195 194 192 192 193 192 189 193 186 185 189 195 214 228 237 230 234 229 240 231 244 246 267 276 278 273 274 292 290 279 291
299 247 157 122 151 256 137 206 155 180 192 190 189 191 196 199 196 200 200 201 201 201 200 200 200 203 199 199 197 203 214 225 237 243 249 249 252 233 239 246 237 270 267 283 281 286 280 296 303
222 275 117 112 178 219 205 247 167 171 188 191 200 192 197 196 198 199 203 203 204 203 205 206 205 208 212 194 205 213 213 225 231 239 242 250 243 251 250 241 249 255 269 275 279 307 291 296 300
273 132 287 226 230 210 207 217 179 177 187 191 201 197 195 196 200 200 201 205 204 204 206 208 208 208 216 209 209 211 212 217 230 233 232 230 234 240 244 248 266 270 248 256 268 289 259 275 279
328 235 225 268 277 247 182 273 152 174 182 189 212 197 201 194 199 202 204 201 204 203 203 207 208 207 205 219 205 222 218 227 231 229 234 242 231 244 242 246 250 255 260 273 269 277 272 280 279
309 241 236 236 253 262 172 275 172 160 193 189 186 210 205 195 198 202 203 200 201 199 201 203 207 211 209 217 218 213 217 218 218 233 232 244 251 258 272 258 244 249 255 265 271 277 277 283 275
239 248 231 214 221 253 93 274 81 112 166 192 181 186 199 209 203 198 206 203 200 198 201 202 208 210 210 216 218 220 223 220 225 227 242 241 245 253 256 263 266 260 279 279 279 282 281 288 283
208 252 255 209 257 175 124 225 183 143 151 151 169 150 196 214 208 216 201 208 206 203 202 204 207 207 213 216 221 224 226 225 229 233 232 243 250 254 259 259 261 260 264 272 273 279 290 285 283
258 242 267 289 288 268 220 176 141 164 171 171 186 159 187 175 183 210 209 203 207 206 205 205 206 208 210 213 218 222 227 224 230 228 238 249 266 266 264 261 264 268 272 269 267 271 271 274 285
238 269 222 238 269 272 218 199 255 169 178 180 190 170 153 157 177 188 207 202 205 210 205 204 207 209 208 207 214 221 230 234 234 234 241 239 245 263 275 270 275 280 271 267 274 263 274 280 283
212 247 254 278 222 248 236 237 168 174 176 187 185 186 163 165 169 194 198 206 203 207 207 209 207 206 208 211 211 218 225 232 244 245 246 251 252 265 283 282 274 266 265 264 271 268 238 249 272
241 218 233 241 246 275 286 20 107 165 175 194 188 171 155 164 162 172 184 192 198 202 204 205 207 209 209 205 205 213 216 221 243 250 242 251 250 263 278 279 268 264 264 265 266 265 246 257 262
Height
1526 1526 1526 1528 1526 1514 1518 1514 1509 1514 1517 1522 1524 1523 1527 1530 1531 1545 1551 1554 1558 1562 1562 1564 1565 1567 1568 1570 1571 1572 1572 1572 1573 1573 1574 1574 1575 1576 1575 1576 1576 1577 1578 1579 1579 1579 1579 1579 1579
1529 1525 1526 1524 1533 1511 1521 1508 1514 1516 1520 1524 1526 1527 1530 1537 1539 1545 1552 1557 1560 1563 1567 1567 1567 1569 1570 1571 1572 1574 1574 1574 1574 1574 1575 1576 1576 1577 1578 1578 1579 1579 1581 1582 1581 1582 1582 1582 1582
1526 1524 1524 1516 1505 1525 1523 1514 1516 1524 1526 1526 1530 1532 1534 1543 1546 1548 1555 1559 1562 1565 1567 1567 1568 1570 1572 1573 1573 1574 1574 1574 1575 1576 1577 1577 1578 1578 1579 1580 1581 1582 1583 1583 1583 1584 1585 1585 1584
1529 1527 1522 1517 1519 1518 1520 1521 1523 1524 1526 1529 1532 1539 1543 1547 1549 1553 1558 1560 1564 1564 1567 1568 1569 1571 1573 1574 1574 1574 1575 1576 1576 1577 1578 1579 1579 1580 1581 1582 1583 1584 1585 1586 1586 1586 1586 1587 1587
1529 1521 1515 1514 1517 1516 1521 1523 1521 1521 1523 1528 1532 1541 1548 1551 1553 1557 1559 1562 1564 1567 1569 1569 1570 1572 1574 1575 1575 1576 1576 1577 1578 1579 1579 1580 1581 1581 1582 1584 1585 1586 1587 1588 1587 1588 1588 1588 1589
1522 1518 1522 1521 1520 1519 1522 1525 1525 1526 1529 1533 1537 1543 1551 1554 1556 1559 1561 1563 1564 1568 1571 1570 1571 1573 1575 1576 1576 1577 1578 1579 1579 1580 1581 1582 1582 1583 1584 1586 1587 1588 1588 1589 1589 1589 1589 1589 1590
1512 1505 1512 1513 1521 1526 1527 1524 1524 1528 1531 1533 1537 1544 1552 1555 1558 1560 1562 1565 1567 1569 1573 1574 1574 1574 1576 1577 1578 1579 1580 1580 1581 1582 1583 1583 1584 1585 1587 1587 1588 1589 1589 1589 1590 1590 1589 1590 1591
1508 1497 1510 1513 1521 1529 1527 1528 1529 1530 1535 1538 1537 1545 1551 1556 1559 1561 1564 1567 1569 1570 1574 1573 1575 1578 1578 1578 1579 1580 1581 1582 1582 1583 1585 1586 1587 1588 1589 1589 1590 1590 1590 1591 1591 1591 1590 1590 1591
1515 1511 1514 1516 1522 1526 1528 1529 1534 1535 1537 1538 1537 1542 1551 1557 1560 1562 1566 1569 1569 1572 1575 1577 1578 1579 1581 1580 1581 1581 1583 1584 1585 1586 1587 1587 1589 1591 1591 1591 1591 1591 1591 1591 1592 1591 1589 1589 1590
1512 1511 1518 1512 1513 1524 1527 1530 1534 1533 1538 1541 1546 1550 1555 1559 1561 1563 1567 1568 1570 1573 1575 1577 1579 1581 1582 1584 1583 1584 1585 1585 1587 1589 1590 1589 1592 1592 1595 1592 1592 1592 1592 1592 1592 1591 1590 1576 1591
1511 1519 1516 1518 1519 1523 1528 1531 1532 1534 1536 1543 1548 1553 1556 1559 1561 1562 1564 1567 1569 1572 1575 1577 1580 1582 1583 1584 1585 1586 1587 1589 1589 1590 1590 1592 1593 1592 1592 1592 1593 1592 1593 1593 1593 1593 1592 1592 1592
1515 1518 1521 1523 1525 1526 1527 1531 1533 1532 1536 1542 1549 1553 1556 1559 1560 1562 1564 1566 1569 1572 1574 1577 1578 1580 1583 1585 1585 1588 1589 1590 1590 1590 1591 1592 1592 1594 1594 1594 1594 1594 1596 1594 1595 1596 1593 1593 1593
1511 1519 1522 1526 1526 1528 1529 1531 1534 1537 1540 1544 1550 1554 1556 1557 1560 1562 1565 1567 1570 1572 1574 1576 1578 1578 1582 1583 1586 1587 1588 1589 1590 1591 1592 1593 1593 1594 1595 1595 1594 1594 1595 1594 1595 1595 1594 1593 1593
1514 1514 1519 1524 1526 1528 1529 1533 1533 1541 1542 1546 1550 1553 1555 1557 1560 1563 1565 1568 1570 1572 1574 1576 1577 1577 1580 1582 1584 1586 1587 1589 1590 1591 1590 1590 1592 1593 1595 1595 1594 1594 1594 1592 1594 1594 1593 1592 1592
1505 1507 1510 1519 1524 1527 1526 1531 1532 1539 1543 1547 1549 1551 1554 1557 1561 1564 1566 1568 1569 1572 1574 1575 1577 1578 1580 1582 1582 1585 1586 1587 1589 1590 1589 1589 1590 1591 1592 1594 1594 1593 1593 1594 1594 1593 1593 1592 1589
1507 1511 1512 1516 1522 1524 1527 1535 1534 1539 1542 1546 1547 1551 1554 1557 1560 1563 1565 1567 1569 1571 1573 1575 1577 1579 1580 1582 1582 1585 1586 1587 1588 1588 1589 1589 1590 1589 1590 1591 1592 1592 1592 1591 1592 1593 1591 1590 1590
1496 1508 1509 1516 1516 1517 1520 1528 1531 1536 1538 1543 1545 1549 1552 1555 1558 1561 1564 1566 1568 1570 1572 1574 1576 1578 1579 1581 1582 1584 1585 1585 1586 1588 1589 1588 1590 1590 1590 1590 1591 1592 1591 1591 1591 1590 1589 1587 1586
1512 1506 1506 1510 1513 1515 1511 1518 1527 1532 1532 1537 1542 1545 1549 1552 1556 1559 1562 1564 1566 1569 1571 1573 1574 1576 1578 1579 1581 1583 1584 1585 1587 1587 1588 1587 1589 1589 1589 1589 1590 1590 1591 1590 1590 1588 1588 1586 1584
1505 1505 1505 1504 1507 1509 1509 1511 1522 1526 1529 1532 1537 1540 1544 1548 1551 1555 1558 1561 1563 1566 1569 1571 1572 1574 1575 1578 1580 1582 1583 1584 1584 1585 1586 1587 1588 1588 1588 1588 1588 1587 1587 1587 1586 1587 1585 1585 1583
1503 1503 1502 1503 1504 1508 1508 1508 1509 1520 1524 1527 1531 1535 1539 1543 1547 1551 1555 1558 1560 1563 1565 1567 1569 1570 1572 1576 1578 1580 1581 1582 1583 1583 1583 1584 1584 1585 1586 1586 1587 1586 1587 1585 1584 1583 1583 1583 1582
1499 1496 1498 1503 1501 1501 1505 1512 1506 1510 1518 1522 1525 1528 1533 1537 1541 1546 1550 1553 1556 1559 1562 1564 1565 1566 1568 1572 1574 1576 1577 1578 1580 1581 1581 1581 1581 1582 1583 1583 1584 1584 1584 1585 1583 1582 1582 1582 1580
1497 1492 1496 1499 1505 1544 1493 1536 1505 1502 1509 1515 1518 1522 1526 1531 1536 1540 1544 1548 1551 1555 1558 1561 1562 1564 1566 1568 1572 1573 1575 1576 1577 1578 1579 1580 1580 1580 1581 1581 1581 1580 1581 1582 1581 1579 1579 1578 1577
1502 1493 1494 1495 1499 1492 1495 1498 1496 1492 1504 1506 1511 1514 1518 1524 1529 1533 1536 1541 1545 1550 1554 1557 1559 1560 1562 1564 1567 1571 1572 1575 1576 1577 1577 1576 1578 1578 1578 1579 1579 1578 1578 1578 1578 1577 1575 1573 1572
1498 1497 1497 1496 1495 1508 1485 1494 1492 1491 1492 1494 1500 1507 1511 1515 1521 1528 1531 1535 1540 1545 1550 1553 1555 1556 1558 1561 1563 1566 1569 1571 1573 1573 1574 1575 1575 1575 1574 1575 1575 1575 1575 1575 1573 1571 1570 1569 1567
1499 1498 1513 1520 1512 1508 1480 1501 1486 1483 1485 1484 1490 1499 1505 1510 1515 1521 1528 1531 1535 1540 1545 1549 1551 1551 1554 1556 1558 1561 1564 1567 1568 1569 1571 1572 1573 1574 1574 1571 1571 1572 1570 1569 1568 1566 1566 1565 1563
1496 1493 1501 1528 1511 1493 1483 1506 1485 1475 1485 1489 1493 1497 1502 1506 1509 1512 1518 1526 1531 1535 1539 1543 1546 1548 1550 1553 1557 1559 1561 1563 1564 1566 1568 1569 1570 1571 1571 1571 1569 1568 1566 1565 1564 1563 1563 1564 1561
1492 1493 1476 1486 1474 1492 1481 1479 1477 1478 1483 1488 1491 1494 1498 1502 1504 1509 1512 1519 1526 1532 1535 1538 1542 1544 1547 1551 1553 1556 1558 1559 1563 1563 1564 1565 1565 1565 1564 1564 1563 1561 1560 1560 1560 1559 1559 1558 1556
1485 1475 1497 1490 1521 1519 1486 1488 1484 1482 1482 1485 1487 1491 1497 1502 1506 1509 1512 1515 1522 1528 1532 1536 1539 1542 1545 1549 1550 1552 1554 1555 1557 1558 1559 1560 1562 1561 1560 1559 1557 1557 1556 1555 1555 1555 1555 1553 1552
1488 1491 1485 1476 1482 1504 1507 1484 1451 1471 1474 1480 1483 1488 1494 1500 1504 1507 1511 1514 1519 1524 1528 1532 1536 1540 1542 1545 1548 1550 1552 1553 1553 1554 1554 1554 1556 1556 1555 1554 1553 1553 1554 1553 1551 1550 1550 1549 1548
1473 1477 1480 1494 1501 1480 1477 1480 1456 1461 1468 1476 1479 1486 1493 1500 1504 1507 1511 1514 1517 1522 1525 1529 1533 1537 1540 1542 1545 1548 1550 1550 1552 1550 1550 1552 1553 1551 1550 1549 1550 1550 1549 1549 1548 1547 1547 1545 1545